Regional Weather Roundup
Issued by NWS

Home | Current Version | Previous Version | Text Only | Print | Product List | Glossary Off
Versions: 1 2 3 4 5 6 7 8 9 10 11 12 13 14 15 16 17 18 19 20 21 22 23 24 25 26 27 28 29 30 31 32 33 34 35 36 37 38 39 40 41 42 43 44 45 46 47 48 49 50

000
ASUS43 KMPX 211401
RWRMN
WEATHER ROUNDUP FOR MINNESOTA
NATIONAL WEATHER SERVICE TWIN CITIES/CHANHASSEN MN
900 AM CDT SAT APR 21 2018


NOTE: "FAIR" INDICATES FEW OR NO CLOUDS BELOW 12,000 FEET WITH NO
SIGNIFICANT WEATHER AND/OR OBSTRUCTIONS TO VISIBILITY. N/A MEANS
CURRENT SKY AND/OR WEATHER CONDITIONS ARE NOT AVAILABLE.

MNZ060>063-068>070-211500-
   Twin Cities Metro

CITY           SKY/WX    TMP DP  RH WIND       PRES   REMARKS
TWIN CITIES    PTSUNNY   43  28  55 E5        30.44S
ST PAUL        FAIR      40  29  64 CALM      30.45S
CRYSTAL        FAIR      44  25  47 NE3       30.43S
BLAINE         PTSUNNY   43  30  61 CALM      30.43F
LAKEVILLE      FAIR      36  32  87 CALM      30.44R
EDEN PRAIRIE   FAIR      43  28  55 CALM      30.43R
SOUTH ST PAUL  FAIR      40  30  65 CALM      30.44R
LAKE ELMO      FAIR      41  32  70 CALM      30.44S
$$
MNZ001>005-007-008-013>017-022>024-027-028-211500-
   Northwest Minnesota

CITY           SKY/WX    TMP DP  RH WIND       PRES   REMARKS
BEMIDJI        FAIR      42  32  69 CALM      30.39S
HALLOCK        FAIR      41  39  93 S14       30.33S
ROSEAU         PTSUNNY   39  36  87 S10       30.35S
WARROAD        FAIR      43  37  81 S5        30.37R
THIEF RVR FALL CLOUDY    37  34  89 S7        30.37S
CROOKSTON      CLOUDY    37  36  93 S9        30.38S
FOSSTON        FAIR      39  34  81 S8        30.38F
DETROIT LAKES  FAIR      39  32  75 CALM      30.40R
MOORHEAD       FAIR      37  34  87 S8        30.40S
PARK RAPIDS    FAIR      38  30  73 S5        30.40S
MAHNOMEN       CLOUDY    45  34  65 S8        30.38S
$$
MNZ006-009>011-018-025>026-211500-
   North Central Minnesota

CITY           SKY/WX    TMP DP  RH WIND       PRES   REMARKS
BAUDETTE       FAIR      44  34  67 S3        30.37S
FLAG ISLAND    FAIR      34  28  80 SE6       30.35F WCI  29
INTL FALLS     FAIR      45  32  60 CALM      30.38S
WASKISH        FAIR      46  30  53 SW3       30.38F
BIG FORK       FAIR      43  25  49 CALM      30.39F
LONGVILLE      FAIR      39  30  70 CALM      30.41S
GRAND RAPIDS   FAIR      42  31  64 N3        30.43S
CRANE LAKE     FAIR      39  25  56 CALM      30.41S
ORR            FAIR      43  25  49 CALM      30.36F
COOK           FAIR      43  25  49 CALM      30.39F
WALKER         FAIR      38  29  69 CALM      30.39F
$$
MNZ012-019>021-037-211500-
   Northeast Minnesota

CITY           SKY/WX    TMP DP  RH WIND       PRES   REMARKS
DULUTH         FAIR      48  25  40 W3        30.41S
ELY            FAIR      43  21  42 CALM      30.38F
HIBBING        FAIR      40  23  50 CALM      30.39F
EVELETH        FAIR      40  25  55 CALM      30.40F
DULUTH HARBOR  FAIR      45  28  53 SW6       30.43S
TWO HARBORS    FAIR      52  30  43 CALM      30.38F
SILVER BAY     FAIR      52  27  37 CALM      30.37F
GRAND MARAIS     N/A     36  30  79 S5        30.40S
G MARAIS ARPRT FAIR      50  19  29 CALM      30.38S
$$
MNZ029>031-032-039>041-046>048-054>057-064-211500-
   West Central Minnesota

CITY           SKY/WX    TMP DP  RH WIND       PRES   REMARKS
FERGUS FALLS   FAIR      39  30  70 SE7       30.39S
WHEATON        CLOUDY    36  34  93 SE7       30.41F
MORRIS         CLOUDY    39  32  75 SE6       30.39S
ALEXANDRIA     FAIR      44  27  51 S7        30.41S
ELBOW LAKE     FAIR      39  32  75 E5        30.40F
WADENA         FAIR      37  30  75 CALM      30.40S
GLENWOOD       FAIR      39  30  70 S3        30.41F
APPLETON       MOSUNNY   39  32  75 SE5       30.40S
BENSON         CLOUDY    45  28  53 SE3       30.42S
ORTONVILLE     MOSUNNY   37  34  87 SE5       30.39S
MADISON        PTSUNNY   37  34  87 CALM      30.40S
WILLMAR        FAIR      39  30  70 E3        30.44S
$$
MNZ033>034-036-042>043-049>051-058-059-211500-
   Central Minnesota

CITY           SKY/WX    TMP DP  RH WIND       PRES   REMARKS
ST CLOUD       FAIR      41  29  62 NE3       30.43F
SAUK CENTRE    FAIR      40  30  67 CALM      30.42S
PAYNESVILLE    FAIR      40  30  66 SE3       30.43S
AITKIN         FAIR      43  30  61 CALM      30.41F
PINE RIVER     FAIR      37  30  75 SE3       30.44S
BRAINERD       FAIR      42  31  64 CALM      30.42F
STAPLES        FAIR      37  30  75 CALM      30.41F
LONG PRAIRIE   FAIR      37  32  81 CALM      30.42S
LITTLE FALLS   FAIR      41  27  56 CALM      30.42F
LITCHFIELD     FAIR      41  30  65 CALM      30.43S
BUFFALO        FAIR      41  30  65 CALM      30.44S
MAPLE LAKE     FAIR      42  31  65 CALM      30.45R
HUTCHINSON     FAIR      42  31  64 NE3       30.43S
$$
MNZ037-044-045-052-053-211500-
   East Central Minnesota

CITY           SKY/WX    TMP DP  RH WIND       PRES   REMARKS
PRINCETON      FAIR      43  30  61 CALM      30.44S
MORA           FAIR      37  27  65 CALM      30.45F
CAMBRIDGE      FAIR      45  28  53 CALM      30.44S
RUSH CITY      FAIR      40  28  61 CALM      30.45S
MOOSE LAKE     FAIR      41  28  60 CALM      30.41S
HINCKLEY       FAIR      41  28  60 CALM      30.44F
CLOQUET        FAIR      46  25  42 CALM      30.41S
MCGREGOR       FAIR      43  32  65 CALM      30.43S
$$
MNZ071>073-080-081-089-090-097-098-211500-
   Southwest Minnesota

CITY           SKY/WX    TMP DP  RH WIND       PRES   REMARKS
MONTEVIDEO     CLOUDY    37  32  81 S5        30.41S
GRANITE FALLS  PTSUNNY   38  32  77 E3        30.43R
CANBY          CLOUDY    37  33  87 E5        30.41S
MARSHALL       CLOUDY    38  31  76 SE3       30.41R
REDWOOD FALLS  CLOUDY    38  30  73 E3        30.41R
OLIVIA         CLOUDY    39  30  70 SE3       30.41S
PIPESTONE      CLOUDY   N/A N/A N/A E3        30.37R
WINDOM         CLOUDY    37  21  52 NE7       30.40R
WORTHINGTON    CLOUDY    37  30  75 CALM      30.39R
JACKSON        CLOUDY    37  30  75 CALM      30.39S
TRACY          CLOUDY    38  33  84 CALM      30.40R
SLAYTON        CLOUDY    37  32  83 CALM      30.39R
$$
MNZ065>067-074>077-082>085-091>093-211500-
   South Central Minnesota

CITY           SKY/WX    TMP DP  RH WIND       PRES   REMARKS
MANKATO        FAIR      38  30  73 E5        30.42S
NEW ULM        CLOUDY    39  28  65 NE3       30.42R
ST JAMES       CLOUDY    36  30  80 NE6       30.43R
FAIRMONT       CLOUDY    37  29  72 NE6       30.41R
GLENCOE        FAIR      40  31  70 CALM      30.42S
OWATONNA       FAIR      41  30  65 CALM      30.41S
WASECA         FAIR      37  30  75 NE6       30.43R
ALBERT LEA     FAIR      39  25  56 CALM      30.40R
$$
MNZ078>079-086>088-094>096-211500-
   Southeast Minnesota

CITY           SKY/WX    TMP DP  RH WIND       PRES   REMARKS
ROCHESTER      PTSUNNY   39  31  72 CALM      30.41S
RED WING       FAIR      39  25  56 CALM      30.43S
STANTON        FAIR      35  31  85 N3        30.42R
DODGE CENTER   FAIR      37  32  81 CALM      30.41R
WINONA         PTSUNNY   37  32  81 CALM      30.42F
AUSTIN         FAIR      39  28  65 SE5       30.40R
PRESTON        PTSUNNY   41  29  62 E5        30.41F
$$
ABBREVIATIONS USED IN REMARKS
   TC - TEMPERATURES IN CELSIUS
  WCI - WIND CHILL INDEX
   HX - HEAT INDEX
  VSB - VISIBILITY
$$



USA.gov is the U.S. government's official web portal to all federal, state and local government web resources and services.